Location: Cahas Mountain Overlook
(37.0833°N, 80.1000°W)
Time: 17:43:14
(UTC-05:00)

Vanguard 3 - Pass Details

Date: 05 December 2023
Orbit: 508 x 3239 km, 33.4° (Epoch: 23 February)

Event Time Altitude Azimuth Distance (km) Brightness Sun altitude
Rises 17:57:32 0° 193° (SSW) 7,162 12.5 -10.7°
Reaches altitude 10° 18:05:30 10° 176° (S) 5,925 11.7 -12.2°
Maximum altitude 18:14:40 16° 145° (SE) 4,895 10.9 -14.0°
Drops below altitude 10° 18:22:14 10° 113° (ESE) 4,814 10.6 -15.4°
Enters shadow 18:23:19 - 108° (ESE) 4,880 10.6 -15.6°
